Date String (YYYY-MM-DD hh:mm:ss) UTC,Instrument flags,absolute air pressure of the measurement (hPa),sample flow rate (lpm),inlet stack bypass flow (lpm),air temperature of the measurement (°C),ambient temperature measured by the external sensor (°C),aerosol sample conditioner tube jacket temperature (°C),OPC LED temperature (°C),internal box temperature (°C),relative humidity of the measurement (%),span deviation,mass concentration of particles derived from Lorenz-Mie calculation of OPC scattering (μg/m³),mass concentration of particles derived from Lorenz-Mie calculation of OPC scattering (μg/m³),mass concentration of particles derived from Lorenz-Mie calculation of OPC scattering (μg/m³)
DateTimeUTC,F1_M11,P_M11,Q1_M11,Q2_M11,T1_M11,T2_M11,T3_M11,T4_M11,T5_M11,U1_M11,ZSPAN_M11,X0_M11,X2_M11,X1_M11
2024-01-25 10:00:00,SystemResetWarning,0826.6,5.01,000.00,021.8,020.7,000.0,030.2,023.1,16.2,0000.0,0008.74,0003.59,0003.41
2024-01-25 10:01:00,SystemResetWarning,0826.6,5.00,000.00,021.7,020.8,000.0,030.2,023.1,16.3,0000.0,0008.52,0003.43,0003.27
2024-01-25 10:02:00,SystemResetWarning,0826.7,5.00,000.00,021.7,020.8,000.0,030.2,023.1,16.3,0000.0,0008.41,0003.33,0003.17
2024-01-25 10:03:00,SystemResetWarning,0826.6,5.00,000.00,021.7,020.8,000.0,030.1,023.1,15.8,0000.0,0008.19,0003.27,0003.11
2024-01-25 10:04:00,SystemResetWarning,0826.8,5.00,000.00,021.7,020.7,000.0,030.1,023.1,15.4,0000.0,0008.35,0003.23,0003.07
2024-01-25 10:05:00,SystemResetWarning,0826.8,5.00,000.00,021.7,020.7,000.0,030.1,023.1,15.2,0000.0,0008.71,0003.24,0003.05
2024-01-25 10:06:00,SystemResetWarning,0826.8,4.99,000.00,021.7,020.7,000.0,030.1,023.1,15.3,0000.0,0008.65,0003.24,0003.00
2024-01-25 10:07:00,SystemResetWarning,0826.7,4.99,000.00,021.7,020.7,000.0,030.1,023.1,15.5,0000.0,0008.13,0003.24,0002.99
2024-01-25 10:08:00,SystemResetWarning,0826.6,5.00,000.00,021.7,020.7,000.0,030.1,023.1,15.6,0000.0,0008.69,0003.22,0002.96
2024-01-25 10:09:00,SystemResetWarning,0826.6,5.00,000.00,021.7,020.7,000.0,030.1,023.1,15.8,0000.0,0008.35,0003.23,0002.99
2024-01-25 10:10:00,SystemResetWarning,0826.6,5.00,000.00,021.7,020.7,000.0,030.1,023.1,15.9,0000.0,0008.32,0003.29,0003.09
2024-01-25 10:11:00,SystemResetWarning,0826.7,5.00,000.00,021.7,020.8,000.0,030.1,023.1,16.0,0000.0,0008.51,0003.42,0003.19
2024-01-25 10:12:00,SystemResetWarning,0826.7,5.00,000.00,021.7,020.8,000.0,030.1,023.1,16.1,0000.0,0008.74,0003.57,0003.33
2024-01-25 10:13:00,SystemResetWarning,0826.7,5.00,000.00,021.7,020.8,000.0,030.1,023.1,16.0,0000.0,0010.11,0003.75,0003.49
2024-01-25 10:14:00,SystemResetWarning,0826.6,5.00,000.00,021.7,020.8,000.0,030.1,023.1,16.1,0000.0,0010.80,0003.88,0003.60
2024-01-25 10:15:00,SystemResetWarning,0826.6,5.00,000.00,021.7,020.8,000.0,030.1,023.1,16.2,0000.0,0010.37,0003.88,0003.60
2024-01-25 10:16:00,SystemResetWarning,0826.6,5.00,000.00,021.7,020.8,000.0,030.1,023.1,16.2,0000.0,0009.97,0003.86,0003.58
2024-01-25 10:17:00,SystemResetWarning,0826.7,5.00,000.00,021.7,020.8,000.0,030.1,023.1,16.3,0000.0,0009.93,0003.84,0003.57
2024-01-25 10:18:00,SystemResetWarning,0826.7,5.00,000.00,021.7,020.8,000.0,030.1,023.1,16.4,0000.0,0009.80,0003.79,0003.54
2024-01-25 10:19:00,SystemResetWarning,0826.7,5.01,000.00,021.7,020.8,000.0,030.1,023.1,16.3,0000.0,0009.07,0003.76,0003.52
2024-01-25 10:20:00,SystemResetWarning,0826.8,5.00,000.00,021.7,020.8,000.0,030.1,023.1,16.3,0000.0,0008.88,0003.82,0003.55
2024-01-25 10:21:00,SystemResetWarning,0826.8,5.00,000.00,021.7,020.8,000.0,030.1,023.1,16.3,0000.0,0008.48,0003.92,0003.64
2024-01-25 10:22:00,SystemResetWarning,0826.8,5.00,000.00,021.7,020.8,000.0,030.1,023.1,16.2,0000.0,0008.36,0004.05,0003.79
2024-01-25 10:23:00,SystemResetWarning,0826.8,5.00,000.00,021.7,020.8,000.0,030.1,023.1,16.2,0000.0,0008.54,0004.19,0003.93
2024-01-25 10:24:00,SystemResetWarning,0826.8,5.00,000.00,021.7,020.9,000.0,030.1,023.1,16.3,0000.0,0007.72,0004.33,0004.07
2024-01-25 10:25:00,SystemResetWarning,0826.7,4.99,000.00,021.7,020.8,000.0,030.1,023.1,16.2,0000.0,0007.47,0004.50,0004.22
2024-01-25 10:26:00,SystemResetWarning,0826.7,4.99,000.00,021.7,020.8,000.0,030.1,023.1,16.1,0000.0,0007.57,0004.66,0004.39
2024-01-25 10:27:00,SystemResetWarning,0826.6,5.00,000.00,021.7,020.8,000.0,030.1,023.1,15.9,0000.0,0007.64,0004.76,0004.48
2024-01-25 10:28:00,SystemResetWarning,0826.6,5.01,000.00,021.7,020.8,000.0,030.1,023.1,15.8,0000.0,0007.84,0004.83,0004.54
2024-01-25 10:29:00,SystemResetWarning,0826.6,5.00,000.00,021.7,020.8,000.0,030.1,023.1,15.8,0000.0,0008.15,0004.87,0004.58
2024-01-25 10:30:00,SystemResetWarning,0826.7,5.00,000.00,021.7,020.8,000.0,030.1,023.1,15.7,0000.0,0008.26,0004.95,0004.65
2024-01-25 10:31:00,SystemResetWarning,0826.7,5.00,000.00,021.7,020.8,000.0,030.1,023.1,15.7,0000.0,0008.34,0005.00,0004.70
2024-01-25 10:32:00,SystemResetWarning,0826.6,5.00,000.00,021.7,020.8,000.0,030.1,023.1,15.7,0000.0,0008.29,0004.95,0004.67
2024-01-25 10:33:00,SystemResetWarning,0826.6,5.00,000.00,021.7,020.8,000.0,030.1,023.1,15.8,0000.0,0008.74,0004.94,0004.64
2024-01-25 10:34:00,SystemResetWarning,0826.6,5.00,000.00,021.7,020.8,000.0,030.1,023.1,15.8,0000.0,0009.38,0004.98,0004.63
2024-01-25 10:35:00,SystemResetWarning,0826.6,5.00,000.00,021.7,020.8,000.0,030.1,023.1,15.8,0000.0,0009.31,0004.94,0004.59
2024-01-25 10:36:00,SystemResetWarning,0826.6,5.00,000.00,021.7,020.8,000.0,030.1,023.1,15.7,0000.0,0009.11,0004.89,0004.55
2024-01-25 10:37:00,SystemResetWarning,0826.6,5.00,000.00,021.7,020.8,000.0,030.1,023.1,15.6,0000.0,0009.12,0004.88,0004.52
2024-01-25 10:38:00,SystemResetWarning,0826.6,5.00,000.00,021.7,020.8,000.0,030.1,023.1,15.6,0000.0,0009.30,0005.01,0004.63
2024-01-25 10:39:00,SystemResetWarning,0826.6,5.00,000.00,021.7,020.8,000.0,030.1,023.1,15.5,0000.0,0009.35,0005.13,0004.78
2024-01-25 10:40:00,SystemResetWarning,0826.6,5.00,000.00,021.7,020.8,000.0,030.0,023.1,15.5,0000.0,0009.27,0005.28,0004.92
2024-01-25 10:41:00,SystemResetWarning,0826.6,5.00,000.00,021.7,020.8,000.0,030.0,023.0,15.5,0000.0,0009.41,0005.41,0005.02
2024-01-25 10:42:00,SystemResetWarning,0826.6,5.00,000.00,021.7,020.8,000.0,030.0,023.0,15.6,0000.0,0009.53,0005.52,0005.12
2024-01-25 10:43:00,SystemResetWarning,0826.6,5.00,000.00,021.7,020.8,000.0,030.0,023.0,15.8,0000.0,0009.66,0005.60,0005.20
2024-01-25 10:44:00,SystemResetWarning,0826.6,5.00,000.00,021.7,020.8,000.0,030.0,023.0,15.9,0000.0,0009.50,0005.65,0005.25
2024-01-25 10:45:00,SystemResetWarning,0826.6,5.00,000.00,021.6,020.8,000.0,030.0,023.0,15.9,0000.0,0008.92,0005.63,0005.27
2024-01-25 10:46:00,SystemResetWarning,0826.6,5.00,000.00,021.6,020.8,000.0,030.0,023.1,15.9,0000.0,0009.48,0005.62,0005.28
2024-01-25 10:47:00,SystemResetWarning,0826.6,5.00,000.00,021.6,020.8,000.0,030.0,023.1,15.8,0000.0,0009.50,0005.64,0005.29
2024-01-25 10:48:00,SystemResetWarning,0826.6,5.00,000.00,021.6,020.8,000.0,030.0,023.0,15.7,0000.0,0009.47,0005.65,0005.31
2024-01-25 10:49:00,SystemResetWarning,0826.6,5.00,000.00,021.6,020.8,000.0,030.0,023.0,15.7,0001.1,0009.47,0005.63,0005.30
2024-01-25 10:50:00,SystemResetWarning,0826.6,5.00,000.00,021.6,020.8,000.0,030.0,023.0,15.7,0003.1,0009.51,0005.60,0005.27
2024-01-25 10:51:00,SystemResetWarning,0826.5,5.00,000.00,021.6,020.8,000.0,030.0,023.0,15.7,0003.1,0009.47,0005.57,0005.22
2024-01-25 10:52:00,SystemResetWarning,0826.6,5.00,000.00,021.6,020.8,000.0,030.0,023.0,15.6,0003.2,0009.36,0005.49,0005.17
2024-01-25 10:53:00,SystemResetWarning,0826.6,4.99,000.00,021.6,020.8,000.0,030.0,023.0,15.6,0000.0,0009.22,0005.40,0005.10
2024-01-25 10:54:00,SystemResetWarning,0826.6,5.00,000.00,021.6,020.8,000.0,030.0,023.0,15.5,0000.0,0009.07,0005.32,0005.02
2024-01-25 10:55:00,SystemResetWarning,0826.6,5.00,000.00,021.6,020.8,000.0,030.0,023.0,15.5,0000.0,0008.93,0005.22,0004.92
2024-01-25 10:56:00,SystemResetWarning,0826.6,5.00,000.00,021.6,020.8,000.0,030.0,023.0,15.5,0000.0,0008.71,0005.13,0004.82
2024-01-25 10:57:00,SystemResetWarning,0826.6,5.00,000.00,021.6,020.8,000.0,030.0,023.0,15.5,0000.0,0008.01,0005.04,0004.72
2024-01-25 10:58:00,SystemResetWarning,0826.6,5.00,000.00,021.6,020.8,000.0,030.0,023.0,15.4,0000.0,0007.89,0004.92,0004.63
2024-01-25 10:59:00,SystemResetWarning,0826.6,5.00,000.00,021.6,020.8,000.0,030.0,023.0,15.2,0000.0,0008.20,0004.83,0004.56
